Jennings, LA

8:52 PM CDT on June 24, 2017 (GMT -0500)
Jennings

Weather History for K3R7 - May, 2014

Change the Weather History Date:

Thursday, May 15, 2014

  Actual Average (KCWF) Record (KCWF)
Temperature  
Mean Temperature 60 °F -  
Max Temperature 72 °F 83 °F 87 °F (2001)
Min Temperature 48 °F 68 °F 46 °F (2014)
Degree Days  
Heating Degree Days 5    
Growing Degree Days 10 (Base 50)    
Moisture  
Dew Point 48 °F    
Average Humidity 67    
Maximum Humidity 97    
Minimum Humidity 34    
Precipitation  
Precipitation 0.00 in - - ()
Sea Level Pressure  
Sea Level Pressure 30.22 in    
Wind  
Wind Speed 6 mph (NW)    
Max Wind Speed 10 mph    
Max Gust Speed 16 mph    
Visibility 10 miles    
Events      
Averages and records for this station are not official NWS values.
T = Trace of Precipitation, MM = Missing Value Source: NWS Daily Summary

Daily Weather History Graph

Daily Weather History Graph

Search for Another Location

Airport or City:

Trip Planner

Search our weather history database for the weather conditions in past years. The results will help you decide how hot, cold, wet, or windy it might be!

Date:

Astronomy

May. 15, 2014 Rise Set
Actual Time 6:16 AM CDT 7:57 PM CDT
Civil Twilight 5:50 AM CDT 8:23 PM CDT
Nautical Twilight 5:19 AM CDT 8:55 PM CDT
Astronomical Twilight 4:45 AM CDT 9:28 PM CDT
Moon 9:06 PM CDT (5/15) 7:03 AM CDT (5/15)
Length of Visible Light 14h 33m
Length of Day
13h 40m
Full, 99% of the Moon is Illuminated
May 15
Full
May 21
Last Quarter
May 28
New
Jun 5
First Quarter
Jun 12
Full

Hourly Weather History & Observations

Time (CDT) Temp. Dew Point Humidity Pressure Visibility Wind Dir Wind Speed Gust Speed Precip Events Conditions
12:15 AM 55.4 °F 50.9 °F 85% 30.21 in 10.0 mi NNW 6.9 mph - N/A   Clear
12:35 AM 55.0 °F 50.5 °F 85% 30.22 in 10.0 mi North 8.1 mph - N/A   Clear
12:55 AM 54.9 °F 50.5 °F 85% 30.22 in 10.0 mi North 8.1 mph - N/A   Clear
1:15 AM 54.5 °F 50.0 °F 85% 30.22 in 10.0 mi North 6.9 mph - N/A   Clear
1:35 AM 54.1 °F 49.3 °F 84% 30.22 in 10.0 mi North 5.8 mph - N/A   Clear
1:55 AM 53.6 °F 49.5 °F 86% 30.21 in 10.0 mi North 5.8 mph - N/A   Clear
2:15 AM 53.6 °F 49.6 °F 86% 30.21 in 10.0 mi NNW 5.8 mph - N/A   Clear
2:35 AM 52.9 °F 49.5 °F 88% 30.21 in 10.0 mi NNW 5.8 mph - N/A   Clear
2:55 AM 51.8 °F 49.6 °F 92% 30.21 in 10.0 mi NNW 4.6 mph - N/A   Clear
3:15 AM 50.7 °F 48.9 °F 94% 30.21 in 10.0 mi NW 4.6 mph - N/A   Clear
3:35 AM 50.9 °F 49.5 °F 95% 30.21 in 10.0 mi NW 4.6 mph - N/A   Clear
3:55 AM 50.4 °F 49.3 °F 96% 30.21 in 10.0 mi NW 3.5 mph - N/A   Clear
4:15 AM 49.8 °F 48.9 °F 97% 30.21 in 10.0 mi NW 3.5 mph - N/A   Clear
4:35 AM 49.6 °F 48.6 °F 96% 30.21 in 10.0 mi NW 3.5 mph - N/A   Clear
4:55 AM 49.1 °F 48.4 °F 97% 30.21 in 10.0 mi NW 4.6 mph - N/A   Clear
5:15 AM 49.5 °F 48.6 °F 97% 30.21 in 10.0 mi NW 3.5 mph - N/A   Clear
5:35 AM 49.3 °F 48.4 °F 97% 30.22 in 10.0 mi NW 4.6 mph - N/A   Clear
5:55 AM 49.1 °F 48.0 °F 96% 30.22 in 10.0 mi NW 5.8 mph - N/A   Clear
6:15 AM 48.6 °F 47.5 °F 96% 30.23 in 10.0 mi NW 5.8 mph - N/A   Clear
6:35 AM 48.6 °F 47.5 °F 96% 30.24 in 10.0 mi NW 4.6 mph - N/A   Clear
6:55 AM 49.1 °F 47.8 °F 95% 30.24 in 10.0 mi NW 3.5 mph - N/A   Clear
7:15 AM 49.8 °F 48.0 °F 94% 30.25 in 10.0 mi NW 3.5 mph - N/A   Clear
7:35 AM 50.5 °F 48.6 °F 93% 30.25 in 10.0 mi NW 4.6 mph - N/A   Clear
7:55 AM 51.8 °F 49.3 °F 91% 30.26 in 10.0 mi NW 4.6 mph - N/A   Clear
8:15 AM 53.2 °F 49.5 °F 87% 30.27 in 10.0 mi NNW 5.8 mph - N/A   Clear
8:35 AM 54.3 °F 49.1 °F 83% 30.27 in 10.0 mi NNW 5.8 mph - N/A   Clear
8:55 AM 55.9 °F 48.2 °F 75% 30.27 in 10.0 mi North 8.1 mph - N/A   Clear
9:15 AM 57.2 °F 47.1 °F 69% 30.27 in 10.0 mi North 6.9 mph - N/A   Clear
9:35 AM 57.6 °F 46.4 °F 66% 30.28 in 10.0 mi North 9.2 mph - N/A   Clear
9:55 AM 59.0 °F 45.7 °F 61% 30.28 in 10.0 mi NNW 6.9 mph - N/A   Clear
10:15 AM 59.9 °F 43.5 °F 55% 30.28 in 10.0 mi North 6.9 mph - N/A   Clear
10:35 AM 61.2 °F 43.7 °F 53% 30.28 in 10.0 mi North 5.8 mph - N/A   Clear
10:55 AM 62.1 °F 42.6 °F 49% 30.28 in 10.0 mi NNW 6.9 mph - N/A   Clear
11:15 AM 63.0 °F 43.9 °F 50% 30.28 in 10.0 mi NNW 6.9 mph - N/A   Clear
11:35 AM 64.0 °F 44.1 °F 48% 30.28 in 10.0 mi NNW 8.1 mph - N/A   Clear
11:50 AM 64.4 °F 43.3 °F 46% 30.28 in 10.0 mi North 8.1 mph - N/A   Clear
12:35 PM 66.4 °F 45.1 °F 46% 30.28 in 10.0 mi NNW 10.4 mph 16.1 mph N/A   Clear
12:55 PM 66.4 °F 44.8 °F 46% 30.27 in 10.0 mi NNW 9.2 mph - N/A   Clear
1:15 PM 67.1 °F 45.5 °F 46% 30.26 in 10.0 mi North 8.1 mph - N/A   Clear
2:15 PM 69.1 °F 45.7 °F 43% 30.24 in 10.0 mi NNW 10.4 mph - N/A   Clear
2:35 PM 70.0 °F 45.1 °F 41% 30.24 in 10.0 mi NW 8.1 mph - N/A   Clear
2:55 PM 70.5 °F 45.1 °F 40% 30.23 in 10.0 mi North 4.6 mph - N/A   Clear
3:15 PM 70.7 °F 44.8 °F 39% 30.22 in 10.0 mi North 5.8 mph - N/A   Clear
3:35 PM 72.0 °F 44.8 °F 38% 30.21 in 10.0 mi NNW 8.1 mph - N/A   Clear
3:55 PM 71.4 °F 43.3 °F 36% 30.20 in 10.0 mi Calm Calm - N/A   Clear
4:15 PM 71.2 °F 42.4 °F 35% 30.20 in 10.0 mi NNW 3.5 mph - N/A   Clear
4:35 PM 71.6 °F 43.2 °F 36% 30.19 in 10.0 mi NNE 3.5 mph - N/A   Clear
4:55 PM 72.5 °F 44.4 °F 36% 30.18 in 10.0 mi NW 3.5 mph - N/A   Clear
5:15 PM 72.1 °F 44.2 °F 37% 30.17 in 10.0 mi NNW 4.6 mph - N/A   Clear
5:35 PM 72.0 °F 43.5 °F 36% 30.17 in 10.0 mi North 4.6 mph - N/A   Clear
5:55 PM 72.0 °F 42.3 °F 34% 30.16 in 10.0 mi Calm Calm - N/A   Clear
6:15 PM 72.5 °F 42.8 °F 34% 30.16 in 10.0 mi North 4.6 mph - N/A   Clear
6:35 PM 72.0 °F 43.2 °F 35% 30.16 in 10.0 mi Calm Calm - N/A   Clear
6:55 PM 71.6 °F 42.6 °F 35% 30.15 in 10.0 mi Calm Calm - N/A   Clear
7:15 PM 71.2 °F 42.6 °F 36% 30.16 in 10.0 mi Calm Calm - N/A   Clear
7:35 PM 70.7 °F 42.8 °F 36% 30.16 in 10.0 mi Calm Calm - N/A   Clear
7:55 PM 67.8 °F 48.7 °F 50% 30.16 in 10.0 mi Calm Calm - N/A   Clear
8:15 PM 65.5 °F 49.5 °F 56% 30.16 in 10.0 mi Calm Calm - N/A   Clear
8:35 PM 64.2 °F 50.4 °F 61% 30.16 in 10.0 mi South 4.6 mph - N/A   Clear
8:55 PM 61.9 °F 50.5 °F 66% 30.17 in 10.0 mi South 3.5 mph - N/A   Clear
9:15 PM 63.0 °F 48.9 °F 60% 30.18 in 10.0 mi South 5.8 mph - N/A   Clear
9:35 PM 62.8 °F 50.0 °F 63% 30.19 in 10.0 mi South 4.6 mph - N/A   Clear
9:55 PM 63.5 °F 52.7 °F 68% 30.20 in 10.0 mi SSW 4.6 mph - N/A   Clear
10:15 PM 63.0 °F 54.0 °F 72% 30.20 in 10.0 mi SSW 3.5 mph - N/A   Clear
10:35 PM 62.6 °F 55.0 °F 76% 30.21 in 10.0 mi SSW 4.6 mph - N/A   Clear
10:55 PM 61.2 °F 55.8 °F 82% 30.20 in 10.0 mi South 3.5 mph - N/A   Clear
11:15 PM 60.8 °F 56.3 °F 85% 30.21 in 10.0 mi South 4.6 mph - N/A   Clear
11:35 PM 60.6 °F 56.3 °F 86% 30.20 in 10.0 mi SSW 3.5 mph - N/A   Clear
11:55 PM 60.4 °F 56.3 °F 86% 30.20 in 10.0 mi South 4.6 mph - N/A   Clear